TimeEST,TemperatureF,Dew PointF,Humidity,Sea Level PressureIn,VisibilityMPH,Wind Direction,Wind SpeedMPH,Gust SpeedMPH,PrecipitationIn,Events,Conditions,WindDirDegrees,DateUTC
12:23 AM,30.2,28.4,93,30.01,1.0,North,12.7,17.3,0.01,Snow,Light Snow,350,2013-03-08 05:23:00
12:41 AM,30.2,28.4,93,30.01,1.2,North,10.4,18.4,0.01,Snow,Light Snow,350,2013-03-08 05:41:00
1:09 AM,30.2,28.4,93,30.01,1.2,North,9.2,-,0.01,Snow,Light Snow,350,2013-03-08 06:09:00
1:18 AM,30.2,28.4,93,30.01,1.0,North,12.7,18.4,0.01,Snow,Light Snow,350,2013-03-08 06:18:00
1:26 AM,30.2,28.4,93,30.00,0.8,NNW,9.2,18.4,0.02,Snow,Light Snow,340,2013-03-08 06:26:00
1:46 AM,30.2,28.4,93,29.99,1.0,North,11.5,19.6,0.03,Snow,Light Snow,350,2013-03-08 06:46:00
1:52 AM,30.9,28.0,89,30.01,1.2,NNW,10.4,18.4,0.03,Snow,Light Snow,340,2013-03-08 06:52:00
2:19 AM,30.2,28.4,93,29.98,1.0,North,9.2,18.4,0.01,Snow,Light Snow,350,2013-03-08 07:19:00
2:52 AM,30.9,28.0,89,29.99,1.0,North,10.4,-,0.03,Snow,Light Snow,350,2013-03-08 07:52:00
3:41 AM,30.2,28.4,93,29.97,1.5,North,10.4,-,0.02,Snow,Light Snow,350,2013-03-08 08:41:00
3:52 AM,30.9,28.0,89,29.99,1.5,North,10.4,19.6,0.02,Snow,Light Snow,350,2013-03-08 08:52:00
4:30 AM,30.2,28.4,93,29.97,1.0,NNW,10.4,-,0.01,Snow,Light Snow,340,2013-03-08 09:30:00
4:52 AM,30.9,28.0,89,29.99,0.8,North,8.1,-,0.03,Snow,Light Snow,360,2013-03-08 09:52:00
5:05 AM,30.2,28.4,93,29.97,0.8,North,10.4,18.4,0.01,Snow,Light Snow,350,2013-03-08 10:05:00
5:52 AM,30.9,28.0,89,29.99,1.0,North,11.5,-,0.04,Snow,Light Snow,350,2013-03-08 10:52:00
6:05 AM,30.2,28.4,93,29.97,1.0,North,12.7,-,0.00,Snow,Light Snow,350,2013-03-08 11:05:00
6:14 AM,30.2,28.4,93,29.98,1.2,North,12.7,18.4,0.00,Snow,Light Snow,350,2013-03-08 11:14:00
6:34 AM,30.2,28.4,93,29.98,1.0,North,11.5,20.7,0.01,Snow,Light Snow,350,2013-03-08 11:34:00
6:44 AM,30.2,28.4,93,29.99,0.8,North,11.5,-,0.01,Snow,Light Snow,360,2013-03-08 11:44:00
6:52 AM,30.9,28.0,89,30.00,0.5,North,13.8,21.9,0.02,Fog-Snow,Snow,350,2013-03-08 11:52:00
7:18 AM,30.2,28.4,93,29.99,0.5,North,10.4,-,0.01,Fog-Snow,Snow,360,2013-03-08 12:18:00
7:37 AM,30.2,28.4,93,30.00,0.5,North,11.5,16.1,0.02,Fog-Snow,Snow,360,2013-03-08 12:37:00
7:44 AM,30.2,28.4,93,30.00,0.5,North,12.7,20.7,0.03,Fog-Snow,Snow,350,2013-03-08 12:44:00
7:52 AM,30.9,28.0,89,30.01,0.5,North,13.8,-,0.03,Fog-Snow,Snow,350,2013-03-08 12:52:00
8:52 AM,30.9,28.0,89,30.01,0.2,North,11.5,19.6,0.05,Fog-Snow,Snow,350,2013-03-08 13:52:00
9:52 AM,30.9,28.9,92,30.03,0.2,North,12.7,17.3,0.07,Fog-Snow,Snow,360,2013-03-08 14:52:00
10:36 AM,32.0,28.4,87,30.02,0.5,North,6.9,-,0.04,Fog-Snow,Snow,10,2013-03-08 15:36:00
10:52 AM,32.0,28.9,88,30.03,0.8,North,9.2,-,0.05,Snow,Light Snow,350,2013-03-08 15:52:00
11:52 AM,33.1,30.0,89,30.04,0.5,NNW,10.4,21.9,0.03,Fog-Snow,Snow,340,2013-03-08 16:52:00
12:02 PM,33.8,30.2,87,30.03,0.5,North,11.5,18.4,0.01,Fog-Snow,Snow,350,2013-03-08 17:02:00
12:09 PM,33.8,30.2,87,30.02,0.5,North,11.5,-,0.02,Fog-Snow,Snow,350,2013-03-08 17:09:00
12:21 PM,33.8,30.2,87,30.02,0.8,NNW,9.2,-,0.03,Snow,Light Snow,340,2013-03-08 17:21:00
12:52 PM,34.0,30.9,89,30.05,0.5,Variable,6.9,17.3,0.05,Fog-Snow,Snow,0,2013-03-08 17:52:00
1:01 PM,33.8,30.2,87,30.03,0.8,North,5.8,-,0.00,Snow,Light Snow,360,2013-03-08 18:01:00
1:04 PM,35.6,30.2,81,30.03,1.2,Variable,4.6,-,0.00,Snow,Light Snow,0,2013-03-08 18:04:00
1:09 PM,35.6,30.2,81,30.03,3.0,NNW,5.8,-,0.00,Snow,Light Snow,340,2013-03-08 18:09:00
1:26 PM,37.4,28.4,70,30.02,10.0,North,8.1,-,0.00,,Overcast,350,2013-03-08 18:26:00
1:52 PM,39.0,26.1,60,30.04,10.0,North,9.2,-,0.00,,Overcast,350,2013-03-08 18:52:00
2:52 PM,39.9,26.1,58,30.05,10.0,North,8.1,-,N/A,,Mostly Cloudy,350,2013-03-08 19:52:00
3:52 PM,41.0,26.1,55,30.06,10.0,NNW,8.1,-,N/A,,Overcast,340,2013-03-08 20:52:00
4:52 PM,41.0,27.0,57,30.09,10.0,NNW,3.5,-,N/A,,Overcast,340,2013-03-08 21:52:00
5:52 PM,37.0,28.9,73,30.11,10.0,NW,5.8,-,N/A,,Overcast,320,2013-03-08 22:52:00
6:52 PM,41.0,24.1,51,30.13,10.0,NNW,9.2,-,N/A,,Mostly Cloudy,340,2013-03-08 23:52:00
7:52 PM,39.0,23.0,53,30.15,10.0,NNW,6.9,-,N/A,,Clear,330,2013-03-09 00:52:00
8:52 PM,39.9,19.9,45,30.17,10.0,NNW,9.2,-,N/A,,Clear,340,2013-03-09 01:52:00
9:52 PM,39.0,19.0,45,30.18,10.0,NNW,10.4,-,N/A,,Clear,340,2013-03-09 02:52:00
10:52 PM,37.9,19.0,47,30.18,10.0,NNW,8.1,-,N/A,,Clear,340,2013-03-09 03:52:00
11:52 PM,37.9,18.0,45,30.18,10.0,North,9.2,-,N/A,,Clear,350,2013-03-09 04:52:00